www.pogodaiklimat.ru
ПОГОДА в Суссексе
Время
и дата
12:53 19.10
13:20 19.10
13:46 19.10
13:53 19.10
14:53 19.10
15:53 19.10
16:53 19.10
17:53 19.10
18:53 19.10
19:53 19.10
20:34 19.10
20:53 19.10
21:53 19.10
22:53 19.10
23:53 19.10
00:18 20.10
00:42 20.10
00:53 20.10
01:53 20.10
02:53 20.10
03:53 20.10
04:14 20.10
04:53 20.10
05:53 20.10
06:32 20.10
06:53 20.10
07:38 20.10
07:46 20.10
07:53 20.10
08:02 20.10
08:05 20.10
08:16 20.10
08:26 20.10
08:53 20.10
09:12 20.10
09:48 20.10
09:53 20.10
10:03 20.10
10:10 20.10
10:22 20.10
10:46 20.10
10:53 20.10
11:53 20.10
12:53 20.10
13:53 20.10
14:53 20.10
15:53 20.10
16:53 20.10
Ветер
(напр.,м/с)
Видим. Явления Облачность Т
(С)
Тd
(С)
f
(%)
Тe
(С)
Тes
(С)
Комфортность P
(гПа)
Po
(гПа)
Тmin
(С)
Tmax
(С)
R
(мм)
R24
(мм)
S
(см)
нст 1 16 км 10/10 1050 м +17.2 +11.1 67 +17 +17 1026.6 1011.5 +10.0 +17.2
нст 1 16 км 10/10 780 м +16.7 +11.1 70 +16 +16 1011.2
нст 1 16 км 10/8 840 м
[средняя]
+17.2 +11.7 70 +18 +19 1010.8
Ю 1 16 км 10/8 900 м
[средняя]
+17.8 +11.1 65 +18 +19 1026.0 1010.8
Ю 1 16 км 10/10 1350 м +17.2 +11.1 67 +17 +17 1025.0 1009.8
штиль 0 16 км 8/8 900 м +17.8 +11.1 65 +18 +20 1025.4 1010.2
штиль 0 16 км 5/5 1020 м +16.7 +11.1 70 +17 +19 1025.6 1010.5
штиль 0 16 км 10/10 960 м +15.6 +11.7 78 +15 +15 1026.0 1010.8
штиль 0 16 км 8/8 1080 м +15.6 +11.7 78 +15 +15 1025.4 1010.2 +15.0 +17.8
штиль 0 16 км 5/5 1260 м +15.0 +11.1 77 +15 +15 1025.2 1009.8
штиль 0 16 км 10/10 540 м +15.0 +11.7 81 +15 +15 1010.2
штиль 0 16 км 10/10 480 м +15.6 +12.2 80 +15 +15 1025.1 1009.8
нст 1 16 км 10/10 570 м +15.6 +12.2 80 +15 +15 1025.4 1010.2
штиль 0 16 км 10/10 540 м +15.0 +11.7 81 +15 +15 1025.0 1009.8
штиль 0 16 км 10/10 630 м +14.4 +11.7 84 +14 +14 1024.8 1009.8
штиль 0 16 км 10/10 540 м +13.9 +11.7 87 +13 +13 1009.5
штиль 0 16 км 10/10 450 м +14.4 +11.7 84 +14 +14 1009.5
штиль 0 16 км 10/10 390 м +14.4 +12.2 87 +14 +14 1024.5 1009.5 +13.3 +15.6
ЮЗ 1 16 км 10/10 360 м +15.0 +12.2 83 +15 +15 1024.2 1009.2
штиль 0 16 км 10/10 330 м +15.0 +12.8 87 +15 +15 1023.5 1008.5
Ю 1 16 км 10/10 480 м +15.0 +12.8 87 +15 +15 1023.5 1008.5
нст 1 16 км 10/10 420 м +15.6 +13.3 86 +15 +15 1008.2
ЮЗ 1 16 км 10/10 390 м +15.6 +13.3 86 +15 +15 1023.4 1008.2
нст 1 16 км 10/10 330 м +15.6 +13.3 86 +15 +15 1023.0 1007.8
нст 1 16 км 10/10 240 м +15.6 +13.3 86 +15 +15 1008.5
штиль 0 16 км 10/10 240 м +15.6 +13.3 86 +15 +15 1023.7 1008.5 +14.4 +15.6
ЮЗ 1 3 км дымка 10/10 180 м +15.6 +13.9 90 +15 +15 1008.8
штиль 0 2 км дымка 10/10 180 м +15.6 +13.9 90 +15 +15 1008.8
штиль 0 1 км слабый дождь, дымка 10/10 180 м +15.6 +14.4 93 +15 +15 1023.9 1008.8
штиль 0 2 км дымка 10/10 180 м +15.6 +15.0 96 +15 +15 1008.8
штиль 0 1 км дымка 10/10 120 м +15.6 +15.0 96 +15 +15 1008.8
штиль 0 2 км дымка 10/10 120 м +15.6 +14.4 93 +15 +15 1008.8
штиль 0 2 км дымка 10/10 150 м +15.6 +15.0 96 +15 +15 1008.8
штиль 0 2 км дымка 10/10 150 м +16.1 +15.0 93 +16 +16 1023.9 1008.8
штиль 0 3 км дымка 10/10 150 м +16.1 +15.0 93 +16 +16 1008.5
штиль 0 5 км дымка 10/10 120 м +17.0 +16.0 94 +17 +17 1008.8
ЮЗ 1 5 км дымка 10/10 120 м +16.7 +15.6 93 +17 +17 1024.0 1008.8 0.3
штиль 0 4 км дымка 10/10 150 м +17.2 +16.1 93 +17 +17 1008.8
нст 1 11 км 10/10 150 м +17.8 +16.7 93 +18 +18 1009.2
нст 1 16 км 10/10 210 м +17.8 +15.6 87 +18 +18 1009.2
нст 1 16 км 10/10 300 м +18.3 +15.6 84 +19 +19 1009.2
ЮЗ 1 16 км 10/10 420 м +18.9 +15.0 78 +20 +20 1024.2 1009.2
ЮЗ 2 16 км 5/5 720 м +21.1 +15.6 71 +24 +31 комфорт 1023.6 1008.5
нст 1 16 км ясно +21.7 +15.0 66 +25 +43 комфорт 1023.2 1008.2 +15.0 +21.7 0.3
нст 1 16 км ясно +22.2 +15.0 64 +26 +45 душно 1022.9 1007.8
нст 1 16 км ясно +21.7 +14.4 63 +25 +39 комфорт 1022.7 1007.8
штиль 0 16 км ясно +21.7 +13.9 61 +25 +37 комфорт 1022.7 1007.8
штиль 0 16 км ясно +20.0 +15.0 73 +22 +28 комфорт 1022.8 1007.8
Местоположение метеостанции Sussex Airport: широта 41.1993 долгота -74.6259 высота над уровнем моря 125 м.
В архиве по умолчанию представлена погода в Суссексе за последние 1-2 суток. Обновление информации о фактической погоде в базе происходит ежечасно! Архивные данные за месяц целиком и за предыдущие месяцы Вы можете получить, выбрав интересующий диапазон дат из раскрывающегося списка и нажав кнопку "Ввод!".
Внимание! Архив погоды МЕТАР в базе сайта по станциям, не включенным в климатический монитор, хранится не более 60 дней. Нет смысла пытаться выбрать более раннюю дату.
*Определитесь, кто Вы:
Внимание! Время в таблицах - местное (без учета летнего времени). Для получения всемирного времени необходимо вычесть поправку, которая равна -5 ч.
Смотрите также архив погоды в соседних городах и на ближайших метеорологических станциях:
Партнеры нашего сайта:      
Пояснения к столбцам:
  • Ветер - указаны скорость ветра в м/с - средняя за 10 мин, порывы в срок и между сроками (в фигурных скобках) и направление, откуда дует ветер: С - северный,
  • СВ - северо-восточный, В - восточный, ЮВ - юго-восточный, Ю - южный, ЮЗ - юго-западный, З - западный, СЗ - северо-западный.
  • Видимость - горизонтальная дальность видимости в метрах или километрах. При видимости от 1 до 10 км при отсутствии осадков обычно наблюдается дымка, при ухудшении видимости до 1 км и менее - туман. В сухую погоду видимость может ухудшаться дымом, пылью или мглою.
  • Явления - указаны атмосферные явления, наблюдавшиеся в срок или в последний час перед сроком; фигурными скобками обозначены явления, наблюдавшиеся между сроками (за 1-3 часа до срока); квадратными скобками обозначены град или гололедные отложения с указанием их диаметра в мм.
  • Облачность - указаны через наклонную черту общая и нижняя облачность в баллах и высота нижней границы облаков в метрах; квадратными скобками обозначены формы облаков: Ci - перистые, Cs - перисто-слоистые, Cc - перисто-кучевые, Ac - высококучевые, As - высокослоистые, Sc - слоисто-кучевые, Ns - слоисто-дождевые, Cu - кучевые, Cb - кучево-дождевые. Подробнее классификацию облаков см. в Атласе облаков (PDF).
  • T - Температура воздуха - температура, измеренная на высоте 2 м над землей.
  • Td - Температура точки росы - температура, при понижении до которой содержащийся в воздухе водяной пар достигнет насыщения.
  • f - Относительная влажность воздуха - влажноcть воздуха, измеренная на высоте 2 м над землей.
  • Te - Эффективная температура - температура, которую ощущает одетый по сезону человек в тени. Характеристика душности погоды. При расчете учитывается влияние влажности воздуха и скорости ветра на теплоощущения человека.
  • Tes - Эффективная температура на солнце - температура, которую ощущает человек, с поправкой на солнечный нагрев. Характеристика знойности погоды. Зависит от высоты солнца над горизонтом, облачности и скорости ветра. Ночью, в пасмурную погоду, а также при ветре 12 м/с и более поправка равна нулю.
  • P - Атмосферное давление - приведенное к уровню моря атмосферное давление.
  • Po - Атмосферное давление - измеренное на уровне метеостанции атмосферное давление.
  • Tmin - Минимальная температура - минимум температуры воздуха на высоте 2 м над землей.
  • Tmax - Максимальная температура - максимум температуры воздуха на высоте 2 м над землей.
  • R - Количество осадков - Количество выпавших осадков за период времени, мм. При наведении курсора мыши на число - период времени, за который выпало указанное количество осадков.
  • R24 - Количество осадков - Количество выпавших осадков за 24 часа, мм.
  • S - Снежный покров - Высота снежного покрова, см. При наведении курсора мыши на число - состояние снежного покрова и степень покрытия местности в баллах.